Weather reports worldwide

Advertisment
Redesdale Camp, United Kingdom (3230): temperature & dewpoint: 16.11.2017 05:00:00 - 22.11.2017 05:00:00 (GMT)Redesdale Camp, United Kingdom (3230): wind speed & gusts: 16.11.2017 05:00:00 - 22.11.2017 05:00:00 (GMT)Redesdale Camp, United Kingdom (3230): wind direction: 16.11.2017 05:00:00 - 22.11.2017 05:00:00 (GMT)Redesdale Camp, United Kingdom (3230): reduced air pressure: 16.11.2017 05:00:00 - 22.11.2017 05:00:00 (GMT)Redesdale Camp, United Kingdom (3230): visibility: 16.11.2017 05:00:00 - 22.11.2017 05:00:00 (GMT)Redesdale Camp, United Kingdom (3230): precipitation: 16.11.2017 05:00:00 - 22.11.2017 05:00:00 (GMT)
Date & Time tt [°C] td [°C] ff [km/h] ff [kn] fx [km/h] fx [kn] dd ppp [hPa] vv [km] rr [mm]
22.11.2017 05:00:00 9,7 8,1 31 17 63 34 SW 989,7 29 0,0
22.11.2017 04:00:00 9,6 8,1 37 20 68 37 SW 989,6 27 0,0
22.11.2017 03:00:00 9,7 8,1 37 20 67 36 SW 990,3 26 0,0
22.11.2017 02:00:00 9,7 7,8 34 18 59 32 SW 990,8 30 0,0
22.11.2017 01:00:00 9,8 7,8 34 18 65 35 SW 991,6 30 0,0
22.11.2017 00:00:00 10,3 7,8 41 22 68 37 SW 991,8 40 0,0
21.11.2017 23:00:00 11,0 9,0 35 19 74 40 SW 991,7 50 -
21.11.2017 22:00:00 11,3 9,4 41 22 67 36 SW 992,2 50 0,0
21.11.2017 21:00:00 11,2 9,4 39 21 70 38 SW 992,5 50 0,0
21.11.2017 20:00:00 11,9 11,2 35 19 59 32 SW 992,8 11 0,2
21.11.2017 19:00:00 11,8 11,1 24 13 52 28 SW 994,1 26 0,2
21.11.2017 18:00:00 11,7 11,1 26 14 - - SW 994,4 14 0,4
21.11.2017 17:00:00 10,4 9,9 15 8 - - SSW 996,4 4,9 0,6
21.11.2017 16:00:00 10,9 9,8 22 12 - - SW 997,4 12 0,0
21.11.2017 15:00:00 10,7 9,7 22 12 52 28 SSW 998,9 30 0,0
21.11.2017 14:00:00 10,7 10,5 29 16 55 30 SW 999,8 15 0,0
21.11.2017 13:00:00 10,5 10,4 8 4 - - S 1001,0 2,6 0,6
21.11.2017 12:00:00 9,7 9,6 5 3 - - SSE 1002,3 3,5 0,0
21.11.2017 11:00:00 9,4 9,3 8 4 - - SE 1003,4 4,7 0,0
21.11.2017 10:00:00 8,1 8,0 4 2 - - SSE 1004,0 8 -
21.11.2017 09:00:00 7,3 7,2 4 2 - - SW 1005,5 0,5 1,0
21.11.2017 08:00:00 7,4 7,3 2 1 - - WNW 1005,4 4,2 0,8
21.11.2017 07:00:00 7,3 7,2 2 1 - - N 1005,3 1,2 0,2
21.11.2017 06:00:00 7,3 7,1 4 2 - - N 1005,5 0,4 0,2
21.11.2017 05:00:00 7,4 7,3 4 2 - - NNW 1005,8 0,6 0,0
21.11.2017 04:00:00 7,4 7,2 2 1 - - NNE 1006,2 1,6 0,0
21.11.2017 03:00:00 7,8 7,6 2 1 - - SSE 1006,5 3,3 0,0
21.11.2017 02:00:00 7,8 7,6 2 1 - - SSE 1006,9 7 0,2
21.11.2017 01:00:00 8,0 7,8 4 2 - - NNW 1007,4 1,1 0,0
21.11.2017 00:00:00 7,8 7,6 0 0 - - N 1007,5 0,9 0,0
20.11.2017 23:00:00 7,8 7,6 2 1 - - NNE 1007,7 2,3 0,0
20.11.2017 22:00:00 8,1 7,7 8 4 - - N 1007,8 5 0,2
20.11.2017 21:00:00 8,2 7,8 8 4 - - N 1007,9 5 0,0
20.11.2017 20:00:00 9,1 8,7 2 1 - - NW 1007,6 45 0,2
20.11.2017 19:00:00 9,2 8,7 4 2 - - WNW 1007,6 11 0,0
20.11.2017 18:00:00 9,3 8,7 2 1 - - W 1007,3 50 0,2
20.11.2017 17:00:00 9,7 9,0 5 3 - - NW 1006,9 40 0,4
20.11.2017 16:00:00 9,8 8,9 5 3 - - WNW 1006,3 50 -
20.11.2017 15:00:00 10,5 9,6 8 4 - - WSW 1006,0 50 0,0
20.11.2017 14:00:00 10,7 9,6 8 4 - - WSW 1005,6 50 0,0
20.11.2017 13:00:00 10,2 9,7 11 6 - - WSW 1005,4 45 0,2
20.11.2017 12:00:00 9,7 9,4 15 8 - - WSW 1005,6 28 1,0
20.11.2017 11:00:00 9,5 9,3 21 11 - - SW 1006,0 14 1,0
20.11.2017 10:00:00 5,1 4,9 5 3 - - N 1006,8 8 0,6
20.11.2017 09:00:00 3,3 3,1 0 0 - - N 1007,4 4,1 0,2
20.11.2017 08:00:00 3,0 2,7 2 1 - - N 1007,7 9 0,0
20.11.2017 07:00:00 2,8 2,5 2 1 - - W 1008,4 2,0 0,2
20.11.2017 06:00:00 2,7 2,4 0 0 - - N 1009,3 1,7 -
20.11.2017 05:00:00 2,6 2,3 0 0 - - N 1010,1 2,2 0,2
20.11.2017 04:00:00 2,4 2,1 2 1 - - S 1011,6 6 0,2
20.11.2017 03:00:00 2,5 2,2 2 1 - - ESE 1012,8 1,6 1,0
20.11.2017 02:00:00 2,3 1,9 2 1 - - ESE 1014,0 5 2,0
20.11.2017 01:00:00 1,7 1,3 2 1 - - W 1015,4 5 1,4
20.11.2017 00:00:00 1,6 1,1 2 1 - - S 1016,6 6 1,0
19.11.2017 23:00:00 1,7 1,0 0 0 - - N 1018,0 7 0,8
19.11.2017 22:00:00 1,6 0,7 4 2 - - SE 1019,0 11 0,4
19.11.2017 21:00:00 1,7 0,4 4 2 - - SSW 1020,0 23 0,0
19.11.2017 20:00:00 1,9 0,1 4 2 - - N 1020,6 50 0,0
19.11.2017 19:00:00 2,1 -0,1 4 2 - - NW 1020,9 40 0,0
19.11.2017 18:00:00 2,1 -0,2 2 1 - - NNW 1021,3 45 0,0
19.11.2017 17:00:00 2,1 -0,3 0 0 - - N 1021,3 45 0,0
19.11.2017 16:00:00 2,7 -0,5 4 2 - - S 1021,6 45 0,0
19.11.2017 15:00:00 3,7 -0,3 5 3 - - SSW 1021,7 50 0,0
19.11.2017 14:00:00 4,8 0,0 8 4 - - SSW 1022,0 50 0,0
19.11.2017 13:00:00 5,5 0,2 5 3 - - SW 1022,2 50 0,0
19.11.2017 12:00:00 5,6 -0,1 5 3 - - W 1022,6 45 0,0
19.11.2017 11:00:00 5,0 0,4 4 2 - - SW 1022,6 35 0,0
19.11.2017 10:00:00 1,3 -2,3 4 2 - - SSE 1023,0 40 0,0
19.11.2017 09:00:00 -0,7 -2,0 2 1 - - E 1023,0 45 0,0
19.11.2017 08:00:00 -2,1 -3,2 2 1 - - SSW 1022,9 40 -
19.11.2017 07:00:00 -2,2 -3,6 2 1 - - NNE 1022,5 40 0,0
19.11.2017 06:00:00 -1,4 -4,3 9 5 - - N 1022,3 40 0,0
19.11.2017 05:00:00 1,0 -2,3 11 6 - - NW 1021,8 40 0,0
19.11.2017 04:00:00 -0,6 -2,7 13 7 - - NNW 1021,9 40 0,0
19.11.2017 03:00:00 0,8 -2,0 11 6 - - NNW 1021,6 40 0,0
19.11.2017 02:00:00 0,3 -2,9 9 5 - - N 1021,4 40 0,0
19.11.2017 01:00:00 0,9 -2,3 8 4 - - NNW 1021,2 40 0,0
19.11.2017 00:00:00 -0,1 -3,0 2 1 - - W 1021,0 40 0,0
18.11.2017 23:00:00 -0,4 -2,8 2 1 - - NNE 1020,8 35 0,0
18.11.2017 22:00:00 0,1 -2,6 4 2 - - WSW 1020,4 40 0,0
18.11.2017 21:00:00 1,1 -1,9 5 3 - - NNW 1020,1 40 0,0
18.11.2017 20:00:00 0,8 -1,1 5 3 - - NW 1019,9 40 0,0
18.11.2017 19:00:00 0,5 -1,7 2 1 - - WNW 1020,1 40 0,0
18.11.2017 18:00:00 0,8 -1,7 4 2 - - S 1019,4 40 0,0
18.11.2017 17:00:00 2,0 -1,0 8 4 - - W 1018,6 45 0,0
18.11.2017 16:00:00 3,4 -0,7 4 2 - - SSE 1018,6 45 0,0
18.11.2017 15:00:00 5,5 0,2 5 3 - - W 1018,2 40 0,0
18.11.2017 14:00:00 5,3 -0,3 5 3 - - WNW 1018,4 45 0,0
18.11.2017 13:00:00 5,8 0,7 8 4 - - W 1018,5 40 0,0
18.11.2017 12:00:00 5,8 0,8 8 4 - - W 1018,2 40 0,0
18.11.2017 11:00:00 6,4 1,4 9 5 - - WNW 1018,2 40 0,0
18.11.2017 10:00:00 6,0 1,2 5 3 - - SW 1018,4 45 0,0
18.11.2017 09:00:00 3,8 1,3 5 3 - - WNW 1018,5 40 0,0
18.11.2017 08:00:00 4,3 1,7 8 4 - - W 1018,1 40 0,0
18.11.2017 07:00:00 4,5 2,2 8 4 - - W 1017,6 45 0,0
18.11.2017 06:00:00 4,9 3,2 13 7 - - WNW 1017,0 45 0,4
18.11.2017 05:00:00 5,5 4,0 9 5 - - WNW 1016,7 24 0,2
18.11.2017 04:00:00 5,4 3,9 13 7 - - WSW 1016,9 13 0,0
18.11.2017 03:00:00 5,5 3,9 15 8 - - WSW 1017,1 35 0,0
18.11.2017 02:00:00 5,6 4,0 15 8 - - WSW 1017,3 40 0,0
18.11.2017 01:00:00 5,5 4,1 16 9 - - WSW 1017,4 35 0,0
18.11.2017 00:00:00 5,7 4,0 18 10 - - WSW 1018,1 35 0,0
17.11.2017 23:00:00 5,9 4,2 11 6 - - WSW 1018,8 40 0,0
17.11.2017 22:00:00 5,6 4,3 11 6 - - WSW 1019,4 20 0,0
17.11.2017 21:00:00 5,4 4,4 16 9 - - WSW 1019,9 24 0,2
17.11.2017 20:00:00 5,6 4,3 21 11 - - WSW 1020,3 14 0,0
17.11.2017 19:00:00 5,7 3,9 24 13 - - SW 1020,9 15 0,0
17.11.2017 18:00:00 5,8 3,8 18 10 - - SW 1021,8 27 0,0
17.11.2017 17:00:00 5,9 3,9 21 11 - - WSW 1021,9 17 0,0
17.11.2017 16:00:00 5,9 3,7 18 10 - - WSW 1022,5 17 0,0
17.11.2017 15:00:00 6,2 3,6 21 11 - - WSW 1023,0 35 0,0
17.11.2017 14:00:00 6,3 3,9 16 9 - - WSW 1023,4 30 0,0
17.11.2017 13:00:00 6,1 3,5 21 11 - - SW 1023,5 40 0,0
17.11.2017 12:00:00 5,6 3,6 16 9 - - SW 1024,7 35 0,0
17.11.2017 11:00:00 5,1 3,4 21 11 - - SW 1025,2 35 0,0
17.11.2017 10:00:00 4,3 2,9 15 8 - - WSW 1025,4 35 0,0
17.11.2017 09:00:00 3,9 2,5 9 5 - - WSW 1025,5 35 0,0
17.11.2017 08:00:00 2,7 2,0 13 7 - - WSW 1025,8 35 0,0
17.11.2017 07:00:00 1,9 1,4 8 4 - - WSW 1025,9 35 0,0
17.11.2017 06:00:00 1,3 0,7 4 2 - - W 1026,1 35 -
17.11.2017 05:00:00 1,5 0,8 5 3 - - NNW 1026,1 30 0,0
17.11.2017 04:00:00 1,8 1,0 8 4 - - NW 1026,2 30 0,2
17.11.2017 03:00:00 1,8 0,7 4 2 - - NW 1026,4 35 0,0
17.11.2017 02:00:00 1,6 0,5 5 3 - - W 1026,6 30 0,0
17.11.2017 01:00:00 1,8 0,5 5 3 - - W 1026,4 35 0,0
17.11.2017 00:00:00 1,9 0,7 8 4 - - W 1026,5 30 0,0
16.11.2017 23:00:00 1,4 0,1 4 2 - - NW 1026,3 35 0,0
16.11.2017 22:00:00 2,0 0,7 13 7 - - W 1025,9 35 0,0
16.11.2017 21:00:00 0,8 -0,8 2 1 - - NNE 1025,7 35 0,0
16.11.2017 20:00:00 1,3 0,2 4 2 - - N 1025,0 35 0,0
16.11.2017 19:00:00 1,4 0,1 8 4 - - NNW 1024,7 35 0,0
16.11.2017 18:00:00 2,1 0,0 5 3 - - NNW 1023,9 35 0,0
16.11.2017 17:00:00 2,6 -0,2 4 2 - - W 1023,2 40 0,0
16.11.2017 16:00:00 3,9 -0,1 4 2 - - W 1022,4 35 0,0
16.11.2017 15:00:00 6,4 0,4 4 2 - - WSW 1021,1 40 0,0
16.11.2017 14:00:00 7,5 0,9 8 4 - - W 1019,8 45 0,0
16.11.2017 13:00:00 7,2 1,8 13 7 - - WNW 1018,8 40 0,0
16.11.2017 12:00:00 7,4 2,0 13 7 - - W 1017,9 45 0,0
16.11.2017 11:00:00 7,2 2,8 15 8 - - WNW 1017,0 35 0,0
16.11.2017 10:00:00 6,7 3,3 13 7 - - WNW 1016,1 45 0,0
16.11.2017 09:00:00 6,9 5,7 9 5 - - W 1014,2 45 0,0
16.11.2017 08:00:00 7,6 6,4 13 7 46 25 W 1013,0 17 1,6
16.11.2017 07:00:00 8,4 7,4 22 12 46 25 SW 1012,2 4,2 0,2
16.11.2017 06:00:00 9,1 7,1 26 14 48 26 SW 1012,3 40 0,0
16.11.2017 05:00:00 9,3 7,9 29 16 50 27 SW 1012,7 45 0,2

tt = temperature
td = dewpoint
ff = wind speed
fx = gusts
dd = wind direction
ppp = reduced air pressure
vv = visibility
rr = precipitation

Next stations